Location: Bonny Doon Airfield
(37.0704°N, 122.1252°W)
Time: 13:00:36
(UTC-08:00)

Vanguard 1 Rocket - Pass Details

Date: 23 October 2017
Orbit: 655 x 4222 km, 34.3° (Epoch: 21 November)

Event Time Altitude Azimuth Distance (km) Brightness Sun altitude
Rises 12:17:36 0° 273° (W) 3,140 10.1 40.6°
Reaches altitude 10° 12:20:21 10° 260° (W) 2,089 9.4 40.7°
Maximum altitude 12:24:04 26° 203° (SSW) 1,295 9.4 40.8°
Drops below altitude 10° 12:28:01 10° 146° (SE) 2,223 10.4 40.9°
Sets 12:31:03 0° 133° (SE) 3,396 10.9 41.0°
